(146032) = 2000 DV71 = 2002 VA62

Discovered at Socorro on 2000-02-29 by LINEAR.

Orbit

Orbit type: Main Belt

Note: WebGL enabled browser required.

epoch2024-03-31.0
epoch JD2460400.5
perihelion date2024-02-19.69449
perihelion JD2460360.19449
argument of perihelion (°)108.13580
ascending node (°)351.82972
inclination (°)1.81220
eccentricity0.1803888
perihelion distance (AU)1.8866109
Tisserand w.r.t. Jupiter3.6
ΔV w.r.t. Earth (km/sec)8.5
semimajor axis (AU)2.3018363
mean anomaly (°)11.37514
mean daily motion (°/day)0.28222290
aphelion distance (AU)2.717
period (years)3.49
P-vector [x]-0.17312306
P-vector [y]0.89125325
P-vector [z]0.41916113
Q-vector [x]-0.98488995
Q-vector [y]-0.15471842
Q-vector [z]-0.07780747
absolute magnitude16.97
phase slope0.15
uncertainty0
referenceMPEC 2024-E23
observations used706
oppositions15
arc length (days)8770
first opposition used2000
last opposition used2024
residual rms (arc-secs)0.71
perturbers coarse indicatorM-v
perturbers precise indicator003Ek
first observation date used2000-02-27.0
last observation date used2024-03-02.0
computer nameMPCLINUX
JD of orbit computation2456877.816186
perihelion JD uncertainty (days)5.4426E-05
argument of perihelion uncertainty (°)1.0320E-04
ascending node uncertainty (°)1.0188E-04
inclination uncertainty (°)4.7939E-06
eccentricity uncertainty 2.7826E-08
perihelion distance uncertainty (AU)6.2261E-08
Minimum Orbit Intersection Distances (in AU)
for orbit epoch: 2460400.5, reference: E2024-E23
Mercury1.57425
Venus1.16746
Earth0.90488
Mars0.27053
Jupiter2.43531
Saturn7.14285
Uranus16.2522
Neptune27.5044

Observations

720 total observations over interval: 2000 02 27.31372 – 2024 03 02.302167
These data are available for download (format description).

Date (UT) J2000 RA J2000 Dec Magn Location Ref
2000 02 27.31372 11 42 19.14 +02 14 53.0 19.3 R 703 – Catalina Sky Survey MPS 11270
2000 02 27.32997 11 42 18.24 +02 14 55.1 19.2 R 703 – Catalina Sky Survey MPS 11270
2000 02 27.34602 11 42 17.21 +02 15 01.0 19.5 R 703 – Catalina Sky Survey MPS 11270
2000 02 27.36213 11 42 16.39 +02 15 06.1 19.1 R 703 – Catalina Sky Survey MPS 11270
2000 02 29.37911 11 40 25.29 +02 24 30.4 19.2   704 – Lincoln Laboratory ETS, New Mexico MPS 11270
2000 02 29.39261 11 40 24.49 +02 24 33.6 19.2   704 – Lincoln Laboratory ETS, New Mexico MPS 11270
2000 02 29.40602 11 40 23.78 +02 24 37.7 19.7   704 – Lincoln Laboratory ETS, New Mexico MPS 11270
2000 02 29.41942 11 40 22.99 +02 24 41.2 19.5   704 – Lincoln Laboratory ETS, New Mexico MPS 11270
2000 03 03.34460 11 37 35.67 +02 38 58.9   704 – Lincoln Laboratory ETS, New Mexico MPS 11270
2000 03 03.36285 11 37 34.54 +02 39 04.5   704 – Lincoln Laboratory ETS, New Mexico MPS 11270
2000 03 03.37679 11 37 33.68 +02 39 08.7   704 – Lincoln Laboratory ETS, New Mexico MPS 11270
2000 03 03.39111 11 37 32.83 +02 39 12.6   704 – Lincoln Laboratory ETS, New Mexico MPS 11270
2000 03 03.40530 11 37 31.95 +02 39 17.1   704 – Lincoln Laboratory ETS, New Mexico MPS 11270
2000 03 11.30976 11 29 38.87 +03 19 51.1 18.8   704 – Lincoln Laboratory ETS, New Mexico MPS 11270
2000 03 11.31638 11 29 38.46 +03 19 53.5 18.0 R 699 – Lowell Observatory-LONEOS MPS 11270
2000 03 11.32233 11 29 38.07 +03 19 54.9 18.7   704 – Lincoln Laboratory ETS, New Mexico MPS 11270
2000 03 11.33488 11 29 37.30 +03 19 59.2 18.6   704 – Lincoln Laboratory ETS, New Mexico MPS 11270
2000 03 11.33829 11 29 37.11 +03 20 00.2   699 – Lowell Observatory-LONEOS MPS 11270
2000 03 11.36020 11 29 35.78 +03 20 06.4   699 – Lowell Observatory-LONEOS MPS 11270
2000 03 11.36510 11 29 35.40 +03 20 08.4 18.8   704 – Lincoln Laboratory ETS, New Mexico MPS 11270
2000 03 11.38220 11 29 34.34 +03 20 13.6   699 – Lowell Observatory-LONEOS MPS 11270
2000 04 05.13764 11 08 51.60 +05 02 51.1 19.2   704 – Lincoln Laboratory ETS, New Mexico MPS 37517
2000 04 05.15217 11 08 51.11 +05 02 54.1 18.9   704 – Lincoln Laboratory ETS, New Mexico MPS 37517
2000 04 05.16670 11 08 50.60 +05 02 56.4 19.0   704 – Lincoln Laboratory ETS, New Mexico MPS 37517
2000 04 05.18124 11 08 50.08 +05 02 58.6 18.6   704 – Lincoln Laboratory ETS, New Mexico MPS 37517
2002 10 31.38025 03 57 30.20 +23 27 12.2 19.0 R 699 – Lowell Observatory-LONEOS MPS 67616
2002 10 31.40130 03 57 29.28 +23 27 12.6   699 – Lowell Observatory-LONEOS MPS 67616
2002 10 31.42236 03 57 28.32 +23 27 11.8   699 – Lowell Observatory-LONEOS MPS 67616
2002 10 31.44335 03 57 27.30 +23 27 10.7   699 – Lowell Observatory-LONEOS MPS 67616
2002 11 05.23241 03 53 40.04 +23 23 24.0 18.9   704 – Lincoln Laboratory ETS, New Mexico MPS 66459
2002 11 05.24952 03 53 39.08 +23 23 22.2 19.4   704 – Lincoln Laboratory ETS, New Mexico MPS 66459
2002 11 05.26671 03 53 38.19 +23 23 22.3 19.1   704 – Lincoln Laboratory ETS, New Mexico MPS 66459
2002 11 05.28429 03 53 37.20 +23 23 20.8 19.4   704 – Lincoln Laboratory ETS, New Mexico MPS 66459
2002 11 05.30156 03 53 36.34 +23 23 20.6 19.7   704 – Lincoln Laboratory ETS, New Mexico MPS 66459
2002 11 08.32541 03 50 52.16 +23 19 22.8 19.1   704 – Lincoln Laboratory ETS, New Mexico MPS 66459
2002 11 08.34284 03 50 51.15 +23 19 21.1 19.3   704 – Lincoln Laboratory ETS, New Mexico MPS 66459
2002 11 08.37773 03 50 48.96 +23 19 18.7 19.3   704 – Lincoln Laboratory ETS, New Mexico MPS 66459
2002 11 12.25002 03 47 01.41 +23 12 29.9 18.5   704 – Lincoln Laboratory ETS, New Mexico MPS 66459
2002 11 12.26726 03 47 00.35 +23 12 27.9 19.0   704 – Lincoln Laboratory ETS, New Mexico MPS 66459
2002 11 12.28462 03 46 59.21 +23 12 25.9 18.9   704 – Lincoln Laboratory ETS, New Mexico MPS 66459
2002 11 12.30187 03 46 58.07 +23 12 24.6 19.2   704 – Lincoln Laboratory ETS, New Mexico MPS 66459
2002 11 12.31920 03 46 56.98 +23 12 20.6 19.5   704 – Lincoln Laboratory ETS, New Mexico MPS 66459
2002 11 13.45880 03 45 46.50 +23 10 01.2 18.5   644 – Palomar Mountain/NEAT MPS 66459
2002 11 13.47925 03 45 45.18 +23 09 58.5 18.4   644 – Palomar Mountain/NEAT MPS 66459
2002 11 13.49976 03 45 43.86 +23 09 55.5 18.8   644 – Palomar Mountain/NEAT MPS 66459
2002 11 14.24785 03 44 57.79 +23 08 19.1 18.8   704 – Lincoln Laboratory ETS, New Mexico MPS 66459
2002 11 14.26493 03 44 56.66 +23 08 14.9 19.2   704 – Lincoln Laboratory ETS, New Mexico MPS 66459
2002 11 14.29948 03 44 54.35 +23 08 12.0 19.3   704 – Lincoln Laboratory ETS, New Mexico MPS 66459
2002 11 14.31650 03 44 53.32 +23 08 08.2 19.3   704 – Lincoln Laboratory ETS, New Mexico MPS 66459
2002 11 28.17551 03 30 04.01 +22 28 24.1 18.6 R 699 – Lowell Observatory-LONEOS MPS 67616
2002 11 28.19166 03 30 02.99 +22 28 21.0   699 – Lowell Observatory-LONEOS MPS 67616
2002 11 28.20773 03 30 01.94 +22 28 19.2   699 – Lowell Observatory-LONEOS MPS 67616
2002 11 28.22378 03 30 00.81 +22 28 15.6   699 – Lowell Observatory-LONEOS MPS 67616
2002 12 02.23599 03 26 00.52 +22 14 43.9 19.3   704 – Lincoln Laboratory ETS, New Mexico MPS 67616
2002 12 02.25124 03 25 59.61 +22 14 39.6 19.3   704 – Lincoln Laboratory ETS, New Mexico MPS 67616
2002 12 02.26659 03 25 58.62 +22 14 37.0 19.5   704 – Lincoln Laboratory ETS, New Mexico MPS 67616
2002 12 02.28212 03 25 57.70 +22 14 34.0 19.4   704 – Lincoln Laboratory ETS, New Mexico MPS 67616
2002 12 02.29751 03 25 56.76 +22 14 30.3 19.1   704 – Lincoln Laboratory ETS, New Mexico MPS 67616
2002 12 02.53520 03 25 42.88 +22 13 44.6 20.9   608 – Haleakala-AMOS MPS 67616
2002 12 02.54598 03 25 42.28 +22 13 42.6 19.8   608 – Haleakala-AMOS MPS 67616
2002 12 02.55718 03 25 41.55 +22 13 40.3 20.3   608 – Haleakala-AMOS MPS 67616
2002 12 05.21014 03 23 15.55 +22 04 37.5 19.4   704 – Lincoln Laboratory ETS, New Mexico MPS 67617
2002 12 05.22550 03 23 14.73 +22 04 35.6 19.3   704 – Lincoln Laboratory ETS, New Mexico MPS 67617
2002 12 05.24079 03 23 13.93 +22 04 31.7 19.2   704 – Lincoln Laboratory ETS, New Mexico MPS 67617
2002 12 05.25608 03 23 13.01 +22 04 29.1 19.4   704 – Lincoln Laboratory ETS, New Mexico MPS 67617
2002 12 05.27132 03 23 12.15 +22 04 25.7 19.3   704 – Lincoln Laboratory ETS, New Mexico MPS 67617
2002 12 06.22334 03 22 22.49 +22 01 14.8 18.6   704 – Lincoln Laboratory ETS, New Mexico MPS 67617
2002 12 06.23862 03 22 21.65 +22 01 12.0 19.1   704 – Lincoln Laboratory ETS, New Mexico MPS 67617
2002 12 06.25412 03 22 20.78 +22 01 08.4 19.1   704 – Lincoln Laboratory ETS, New Mexico MPS 67617
2002 12 06.26943 03 22 19.96 +22 01 06.1 19.3   704 – Lincoln Laboratory ETS, New Mexico MPS 67617
2002 12 06.28487 03 22 19.08 +22 01 03.2 19.1   704 – Lincoln Laboratory ETS, New Mexico MPS 67617
2002 12 11.21493 03 18 28.19 +21 45 09.5 19.3   644 – Palomar Mountain/NEAT MPS 67617
2002 12 11.22556 03 18 27.63 +21 45 07.0 19.0   704 – Lincoln Laboratory ETS, New Mexico MPS 67617
2002 12 11.23605 03 18 27.24 +21 45 05.5 19.3   644 – Palomar Mountain/NEAT MPS 67617
2002 12 11.24090 03 18 26.95 +21 45 03.6 19.7   704 – Lincoln Laboratory ETS, New Mexico MPS 67617
2002 12 11.25652 03 18 26.26 +21 45 01.4 19.2   704 – Lincoln Laboratory ETS, New Mexico MPS 67617
2002 12 11.25723 03 18 26.28 +21 45 01.5 19.1   644 – Palomar Mountain/NEAT MPS 67617
2002 12 11.27203 03 18 25.61 +21 44 59.3 19.2   704 – Lincoln Laboratory ETS, New Mexico MPS 67617
2002 12 11.28768 03 18 24.91 +21 44 55.5 19.6   704 – Lincoln Laboratory ETS, New Mexico MPS 67617
2002 12 27.21289 03 12 06.66 +21 08 30.5 19.9   644 – Palomar Mountain/NEAT MPS 71186
2002 12 27.23424 03 12 06.53 +21 08 28.5 20.1   644 – Palomar Mountain/NEAT MPS 71186
2002 12 27.25566 03 12 06.35 +21 08 27.1 19.6   644 – Palomar Mountain/NEAT MPS 71186
2003 01 05.15252 03 13 04.65 +21 02 17.0 19.7   704 – Lincoln Laboratory ETS, New Mexico MPS 69596
2003 01 05.16781 03 13 04.95 +21 02 16.6 19.7   704 – Lincoln Laboratory ETS, New Mexico MPS 69596
2003 01 05.19833 03 13 05.44 +21 02 17.5 20.2   704 – Lincoln Laboratory ETS, New Mexico MPS 69596
2003 01 05.21380 03 13 05.64 +21 02 16.8 20.7   704 – Lincoln Laboratory ETS, New Mexico MPS 69596
2005 08 06.47258 23 00 26.99 -07 26 36.0 20.2   644 – Palomar Mountain/NEAT MPS 139558
